[[{"header":{"parameterUnit":"m.s-1","parameterCategory":2,"la1":30.2991,"la2":30.254,"lo1":-89.0895,"lo2":-89.0444,"dy":0.0017,"dx":0.0017,"nx":28,"ny":28,"refTime":"2025-03-22T09:00:00:Z","depth":"0","parameterNumber":2,"parameterNumberName":"U-component_of_CURRENTS"},"data":[0,0,0,0,0,0,0,0,0,0,0,0,0,0,0,0,0,0,0,0,0,0,0,0,0,0,0,0,0,0,0,0,0,0,0,0,0,0,0,0,0,0,0,0,0,0,0,0,0,0,0,0,0,0,0,0,0,0,0.3116,0.3118,0,0.3197,0.3197,0.3197,0.3206,0.3206,0.3206,0.3206,0.3217,0.3218,0.3218,0,0,0,0,0,0,0,0,0,0,0,0,0,0.3012,0.3013,0.3116,0.3118,0.312,0.3197,0.3197,0.3197,0.3206,0.3206,0.3206,0.3206,0.3217,0.3218,0.3218,0,0,0,0,0,0,0,0,0,0,0,0,0,0.3062,0.3013,0.3116,0.314,0.3144,0.3197,0.3197,0.3197,0.3206,0.3206,0.3206,0.3206,0.3217,0.3217,0.3218,0.322,0,0,0.3219,0.3219,0,0,0,0,0,0,0,0,0.3059,0.3065,0.3135,0.3139,0.3143,0.3199,0.3165,0.3205,0.3206,0.3173,0.3206,0.3206,0.3211,0.3212,0.3215,0.3221,0.3221,0.3219,0.322,0.322,0.322,0,0,0,0,0,0,0,0.3056,0.3062,0.3139,0.3137,0.3142,0.3162,0.3168,0.3172,0.3182,0.3176,0.3179,0.3202,0.3211,0.3214,0.3215,0.3221,0.3219,0.322,0.322,0.322,0.3289,0.3291,0,0,0,0,0,0,0.3062,0.3058,0.3136,0.3142,0.3111,0.3165,0.3171,0.3174,0.3184,0.3189,0.3202,0.3203,0.3214,0.3215,0.3216,0.3266,0.322,0.322,0.322,0.3288,0.329,0.3291,0,0,0,0,0,0,0.3059,0.3067,0.3133,0.3111,0.3122,0.3167,0.317,0.3176,0.3187,0.3207,0.3208,0.321,0.3214,0.3215,0.3238,0.3264,0.322,0.3221,0.3286,0.3288,0.329,0.3336,0,0,0,0,0,0,0.3055,0.3065,0.3058,0.311,0.3124,0.3165,0.3171,0.3177,0.3206,0.3206,0.3214,0.3214,0.3214,0.3237,0.3238,0.3264,0.3221,0.3284,0.3287,0.329,0.3332,0.3339,0.3345,0,0,0,0,0,0.3051,0.3045,0.3056,0.3066,0.3115,0.3166,0.3173,0.32,0.3206,0.3209,0.3227,0.3215,0.3257,0.3239,0.324,0.3266,0.3282,0.3286,0.3289,0.3329,0.3338,0.3345,0,0,0,0,0,0,0.2998,0.3048,0.3061,0.307,0.3117,0.3171,0.3184,0.3204,0.322,0.3221,0.3229,0.3232,0.3267,0.326,0.324,0.3297,0.327,0.3274,0.33,0.3308,0.3314,0.3338,0.3221,0,0,0,0,0,0.2985,0.2988,0.3051,0.3059,0.3086,0.3134,0.3157,0.318,0.3213,0.322,0.3231,0.3249,0.3281,0.3288,0.3306,0.3327,0.3385,0.3348,0.3354,0.336,0.3382,0.3522,0.3544,0.3303,0.3303,0.3303,0,0,0.2969,0.2998,0.3,0.3048,0.3086,0.3124,0.3145,0.3186,0.3211,0.3218,0.3243,0.3271,0.3295,0.3331,0.3345,0.3326,0.3455,0.3364,0.3369,0.3388,0.3528,0.3552,0.3573,0.3305,0.3305,0.3305,0,0,0.2957,0.2968,0.2977,0.3017,0.3081,0.3113,0.3128,0.3187,0.3205,0.3238,0.3267,0.3321,0.3331,0.338,0.34,0.3454,0.3491,0.3449,0.3495,0.363,0.3652,0.3672,0.376,0.3788,0.3446,0.3446,0.3446,0,0.2939,0.2965,0.299,0.3023,0.307,0.311,0.3155,0.3173,0.3227,0.3279,0.3246,0.3363,0.3364,0.3469,0.3479,0.3471,0.3542,0.3459,0.3642,0.3663,0.3683,0.3769,0.3799,0.3448,0.3448,0.3448,0.3448,0,0.2947,0.2974,0.2992,0.3041,0.3081,0.3129,0.3181,0.3216,0.3243,0.3293,0.3395,0.3417,0.3509,0.3503,0.3497,0.3642,0.3645,0.3641,0.3625,0.371,0.3794,0.3825,0.3452,0.3451,0.345,0.345,0,0,0.2914,0.2984,0.2991,0.305,0.3107,0.3162,0.3199,0.3296,0.3383,0.3402,0.3531,0.3563,0.3619,0.3648,0.3668,0.3751,0.3922,0.3748,0.3754,0.3841,0.4212,0.4129,0.4153,0.3964,0.3969,0.3974,0.421,0,0.2931,0.3007,0.3022,0.3111,0.3184,0.3232,0.3287,0.3371,0.3437,0.3558,0.3615,0.3727,0.366,0.3733,0.3809,0.3919,0.4008,0.3858,0.4113,0.412,0.4041,0.4188,0.4011,0.4201,0.4239,0.4244,0.4248,0,0.2954,0.3016,0.3108,0.3229,0.3263,0.3307,0.3468,0.3517,0.3666,0.3725,0.3839,0.3901,0.404,0.3963,0.4187,0.4102,0.4164,0.4213,0.4224,0.4157,0.4094,0.4125,0.4254,0.4092,0.4295,0.4291,0.4288,0,0.3005,0.3083,0.3173,0.3212,0.3336,0.3399,0.3457,0.3595,0.3668,0.3859,0.3953,0.4118,0.4217,0.4338,0.4399,0.4341,0.4632,0.4574,0.4552,0.4545,0.4449,0.4424,0.4457,0.4747,0.4747,0.4746,0.4745,0,0.3063,0.3147,0.3211,0.3288,0.3402,0.3468,0.3603,0.3689,0.3827,0.394,0.4056,0.4175,0.432,0.4471,0.4515,0.4634,0.4742,0.4607,0.4628,0.4453,0.4427,0.4321,0.4254,0.4755,0.4753,0.4751,0.475,0,0.3152,0.3186,0.3306,0.3418,0.3444,0.3538,0.3633,0.373,0.3863,0.4017,0.4083,0.4279,0.4488,0.4604,0.482,0.478,0.4772,0.4904,0.4657,0.4643,0.4428,0.437,0.4372,0.4246,0.4952,0.4951,0.4951,0,0.3224,0.3294,0.3385,0.3419,0.3472,0.3574,0.3633,0.3742,0.3818,0.4056,0.4129,0.4384,0.4516,0.4793,0.4839,0.4962,0.4792,0.4821,0.4662,0.4434,0.4388,0.4231,0.4112,0.4556,0.4552,0.4549,0.4547,0,0.3369,0.3381,0.3452,0.3487,0.3541,0.3583,0.3662,0.3711,0.3846,0.3976,0.4135,0.4272,0.4546,0.4606,0.4766,0.4794,0.4577,0.4763,0.4628,0.4177,0.3917,0.3796,0.4349,0.4522,0.4525,0.4527,0.4528,0.4529,0.345,0.3476,0.3501,0.3532,0.3562,0.3547,0.3545,0.3618,0.3698,0.3828,0.4032,0.416,0.4334,0.4543,0.4562,0.4423,0.4426,0.426,0.4243,0.413,0.3893,0.436,0.448,0.4483,0.4484,0.4486,0.4488,0,0.3495,0.3483,0.3524,0.3511,0.3488,0.3505,0.3519,0.3475,0.3498,0.368,0.3801,0.3915,0.3993,0.4096,0.4075,0.3917,0.375,0.3785,0.3521,0.3455,0.3976,0.3835,0.3697,0.3697,0.3697,0.3697,0.3697,0.3698,0.3506,0.35,0.3483,0.3417,0.339,0.3281,0.3243,0.3206,0.326,0.3288,0.3338,0.3476,0.3654,0.3757,0.3612,0.3515,0.3229,0.3101,0.3091,0.3431,0.3472,0.351,0.3359,0.3124,0.3123,0.2415,0.2409,0.2405]},{"header":{"parameterUnit":"m.s-1","parameterCategory":2,"la1":30.2991,"la2":30.254,"lo1":-89.0895,"lo2":-89.0444,"dy":0.0017,"dx":0.0017,"nx":28,"ny":28,"refTime":"2025-03-22T09:00:00:Z","depth":"0","parameterNumber":3,"parameterNumberName":"V-component_of_CURRENTS"},"data":[0,0,0,0,0,0,0,0,0,0,0,0,0,0,0,0,0,0,0,0,0,0,0,0,0,0,0,0,0,0,0,0,0,0,0,0,0,0,0,0,0,0,0,0,0,0,0,0,0,0,0,0,0,0,0,0,0,0,0.0062,0.0062,0,0.0026,0.0025,0.0025,-0.0007,-0.0007,-0.0007,-0.0007,-0.0084,-0.0086,-0.0087,0,0,0,0,0,0,0,0,0,0,0,0,0,0.0075,0.0075,0.0062,0.0062,0.0062,0.0026,0.0025,0.0025,-0.0007,-0.0007,-0.0007,-0.0008,-0.0083,-0.0085,-0.0087,0,0,0,0,0,0,0,0,0,0,0,0,0,0.0056,0.0075,0.0062,0.0042,0.004,0.0026,0.0025,0.0025,-0.0007,-0.0007,-0.0007,-0.0008,-0.0082,-0.0085,-0.0088,-0.0097,0,0,-0.0096,-0.0097,0,0,0,0,0,0,0,0,0.0058,0.0056,0.0046,0.0044,0.0042,0.0015,0.0002,-0.0018,-0.0007,0.001,-0.0007,-0.0008,-0.0053,-0.0059,-0.0066,-0.0101,-0.0104,-0.0096,-0.0098,-0.0099,-0.01,0,0,0,0,0,0,0,0.0059,0.0057,0.0047,0.0045,0.0043,0.0026,0.0023,-0.0002,-0.0021,0.0008,0.0006,0.0004,-0.0055,-0.0063,-0.0068,-0.0105,-0.0096,-0.0099,-0.01,-0.0101,-0.0137,-0.0137,0,0,0,0,0,0,0.0068,0.0059,0.0048,0.0046,0.005,0.0026,0.0022,0.0023,-0.002,-0.0026,0.0005,0.0003,-0.0058,-0.0065,-0.0071,-0.0058,-0.0099,-0.0102,-0.0103,-0.0138,-0.0137,-0.0136,0,0,0,0,0,0,0.0068,0.0067,0.0049,0.0052,0.0049,0.0026,0.0027,0.0022,0.0015,-0.0022,-0.0029,0.0002,-0.0059,-0.0067,-0.0082,-0.0062,-0.0103,-0.0105,-0.0139,-0.0138,-0.0137,-0.0049,0,0,0,0,0,0,0.0069,0.0068,0.007,0.0053,0.0049,0.005,0.0027,0.0022,0.0015,0.0012,-0.0026,-0.0034,-0.006,-0.0077,-0.0084,-0.0067,-0.0107,-0.014,-0.0138,-0.0137,-0.0053,-0.0046,-0.0039,0,0,0,0,0,0.007,0.0082,0.007,0.0069,0.0053,0.0051,0.0048,0.0029,0.0015,0.002,-0.0005,-0.0033,-0.0074,-0.0079,-0.0087,-0.007,-0.014,-0.0139,-0.0137,-0.0056,-0.0047,-0.0039,0,0,0,0,0,0,0.01,0.0079,0.0066,0.0074,0.0065,0.0046,0.0048,0.0033,0.0017,0.0012,-0.0025,-0.0034,-0.0042,-0.0069,-0.0072,-0.0077,-0.0112,-0.0112,-0.0047,-0.0039,-0.0032,0.0019,-0.011,0,0,0,0,0,0.0105,0.0101,0.0085,0.0092,0.0088,0.0067,0.0062,0.005,0.0034,0.0026,0.0002,-0.0025,-0.0042,-0.005,-0.0075,-0.0076,-0.0076,-0.0071,-0.0064,-0.0058,-0.0022,0.0001,0.0015,-0.0132,-0.0132,-0.0132,0,0,0.012,0.0108,0.0106,0.0097,0.0085,0.0098,0.0063,0.0062,0.0082,0.002,0.0033,-0.0006,-0.0039,-0.0039,-0.0045,-0.0057,-0.0022,-0.0056,-0.005,-0.0017,0.0005,0.0019,0.0032,-0.0131,-0.0131,-0.0131,0,0,0.0155,0.0135,0.0146,0.0141,0.0129,0.012,0.0122,0.0105,0.0106,0.0105,0.0071,0.0056,0.0018,0.0015,0.0005,0.0037,0.001,0.0013,0.0099,0.012,0.0133,0.0145,0.0145,0.0156,0.0023,0.0024,0.0024,0,0.0178,0.0194,0.0152,0.0166,0.0183,0.0135,0.0173,0.0162,0.0145,0.0168,0.0119,0.0106,0.0054,0.0096,0.0094,0.0057,0.0057,0.007,0.0133,0.0144,0.0155,0.0152,0.0164,0.0028,0.0028,0.0027,0.0027,0,0.0226,0.0239,0.0249,0.0254,0.026,0.0283,0.0269,0.028,0.0262,0.0256,0.028,0.022,0.0229,0.019,0.0144,0.0199,0.0169,0.0135,0.0119,0.0176,0.0168,0.0178,0.0034,0.0033,0.0031,0.003,0,0,0.0301,0.0289,0.0297,0.034,0.0318,0.0353,0.0372,0.0412,0.0477,0.0418,0.0506,0.0429,0.0404,0.0392,0.0337,0.0334,0.0369,0.0269,0.0268,0.0284,0.0411,0.035,0.0355,0.0349,0.0351,0.0353,0.0369,0,0.0369,0.0439,0.0399,0.0489,0.0542,0.051,0.0562,0.0581,0.0577,0.0639,0.058,0.0621,0.0481,0.0504,0.0474,0.0415,0.0404,0.0368,0.0342,0.0342,0.0294,0.0368,0.0329,0.0337,0.0379,0.038,0.0382,0,0.0455,0.0495,0.0597,0.0672,0.0694,0.0739,0.085,0.088,0.0911,0.0913,0.091,0.0863,0.0859,0.0731,0.0662,0.0648,0.0541,0.0468,0.0466,0.0398,0.0302,0.0289,0.0354,0.0137,0.0397,0.0396,0.0394,0,0.0609,0.0652,0.0759,0.0778,0.0836,0.0904,0.0942,0.0984,0.1052,0.1105,0.1166,0.1119,0.1142,0.1011,0.081,0.076,0.0725,0.0643,0.0487,0.048,0.044,0.0425,0.031,0.0604,0.0604,0.0604,0.0604,0,0.0742,0.0838,0.085,0.0927,0.1075,0.1065,0.1224,0.1249,0.1318,0.1425,0.1336,0.1422,0.1214,0.1141,0.0926,0.0748,0.0817,0.0537,0.05,0.0463,0.0451,0.0251,0.0138,0.0604,0.0604,0.0604,0.0604,0,0.0927,0.0927,0.1059,0.113,0.116,0.128,0.1379,0.1481,0.1538,0.168,0.1714,0.1686,0.1594,0.1351,0.1157,0.0929,0.062,0.0651,0.0606,0.0562,0.0203,0.0097,-0.0024,-0.0101,0.0515,0.0514,0.0513,0,0.1043,0.112,0.1213,0.1267,0.1308,0.1445,0.1528,0.1594,0.1686,0.184,0.1925,0.1903,0.1886,0.1578,0.1182,0.0837,0.0604,0.0561,0.045,0.0211,0.0067,-0.0021,-0.0083,0.0419,0.0417,0.0416,0.0415,0,0.1226,0.1244,0.1317,0.1414,0.1509,0.163,0.1751,0.1866,0.196,0.2098,0.2238,0.2259,0.198,0.1632,0.1153,0.0882,0.0409,0.0522,0.0307,0.0024,-0.0103,-0.0205,0.0358,0.0403,0.0404,0.0405,0.0406,0.0406,0.1323,0.1378,0.141,0.1519,0.1624,0.1757,0.1877,0.2012,0.2192,0.2394,0.2429,0.2486,0.1981,0.1337,0.0988,0.0278,0.032,0.005,-0.0045,-0.0101,-0.0215,0.0312,0.0288,0.0289,0.0289,0.029,0.029,0,0.135,0.1379,0.1486,0.1586,0.1707,0.1758,0.1963,0.2092,0.2303,0.2501,0.2631,0.2359,0.1761,0.1129,0.0208,-0.0216,-0.0371,-0.0456,-0.0593,-0.0617,-0.0122,-0.0169,-0.0329,-0.0328,-0.0328,-0.0328,-0.0328,-0.0327,0.134,0.1387,0.143,0.1591,0.1692,0.1853,0.1974,0.2199,0.2371,0.2574,0.2587,0.2577,0.1998,0.0468,-0.0548,-0.0756,-0.1036,-0.1104,-0.1203,-0.0903,-0.0864,-0.0827,-0.0899,-0.1209,-0.121,-0.1666,-0.1671,-0.1675]}],[{"header":{"parameterUnit":"m.s-1","parameterCategory":2,"la1":30.2991,"la2":30.254,"lo1":-89.0895,"lo2":-89.0444,"dy":0.0017,"dx":0.0017,"nx":28,"ny":28,"refTime":"2025-03-22T09:00:00:Z","depth":"2","parameterNumber":2,"parameterNumberName":"U-component_of_CURRENTS"},"data":[0,0,0,0,0,0,0,0,0,0,0,0,0,0,0,0,0,0,0,0,0,0,0,0,0,0,0,0,0,0,0,0,0,0,0,0,0,0,0,0,0,0,0,0,0,0,0,0,0,0,0,0,0,0,0,0,0,0,0.2726,0.2726,0,0.2693,0.2692,0.2692,0.2691,0.2692,0.2692,0.2693,0.2708,0.2707,0.2707,0,0,0,0,0,0,0,0,0,0,0,0,0,0.276,0.2759,0.2726,0.2726,0.2725,0.2693,0.2692,0.2691,0.2691,0.2692,0.2692,0.2693,0.2708,0.2707,0.2707,0,0,0,0,0,0,0,0,0,0,0,0,0,0.2737,0.2759,0.2726,0.2722,0.2721,0.2693,0.2692,0.2691,0.2691,0.2692,0.2692,0.2693,0.2708,0.2707,0.2707,0.2691,0,0,0.2707,0.2707,0,0,0,0,0,0,0,0,0.2738,0.2735,0.2723,0.2722,0.2721,0.2698,0.2709,0.2694,0.2691,0.2701,0.2693,0.2694,0.2709,0.2709,0.2698,0.2692,0.2692,0.2707,0.2707,0.2707,0.2707,0,0,0,0,0,0,0,0.274,0.2737,0.2712,0.2723,0.2722,0.2712,0.2709,0.2706,0.2701,0.2701,0.2701,0.2698,0.2709,0.2698,0.2699,0.2693,0.2707,0.2707,0.2707,0.2707,0.2744,0.2745,0,0,0,0,0,0,0.2746,0.2738,0.2713,0.2711,0.2733,0.2711,0.2708,0.2704,0.27,0.27,0.2698,0.2698,0.2698,0.2699,0.27,0.2768,0.2707,0.2707,0.2707,0.2743,0.2744,0.2745,0,0,0,0,0,0,0.2747,0.2744,0.2714,0.2725,0.272,0.271,0.2704,0.2703,0.2718,0.2698,0.2699,0.2718,0.2699,0.27,0.2729,0.2765,0.2707,0.2706,0.2741,0.2743,0.2744,0.2848,0,0,0,0,0,0,0.2748,0.2745,0.2752,0.2725,0.272,0.2717,0.2704,0.2701,0.2714,0.2716,0.2715,0.2716,0.27,0.2729,0.2728,0.2764,0.2706,0.274,0.2742,0.2744,0.2843,0.2853,0.2861,0,0,0,0,0,0.2749,0.2747,0.2752,0.275,0.2727,0.2718,0.2715,0.2709,0.2715,0.2725,0.2734,0.2717,0.2741,0.273,0.2729,0.2765,0.2739,0.2741,0.2744,0.2839,0.2851,0.2861,0,0,0,0,0,0,0.2739,0.2746,0.2751,0.2744,0.2745,0.2719,0.2721,0.2725,0.2737,0.2743,0.2734,0.2735,0.2772,0.2751,0.2739,0.2779,0.2735,0.2738,0.2808,0.2819,0.2828,0.2842,0.2706,0,0,0,0,0,0.2747,0.2765,0.2756,0.2754,0.2755,0.2747,0.2746,0.2746,0.2747,0.2753,0.2748,0.2752,0.2774,0.2785,0.2783,0.2808,0.2827,0.2827,0.2836,0.2844,0.2854,0.2948,0.2968,0.2753,0.2753,0.2753,0,0,0.2741,0.2748,0.2755,0.2758,0.2753,0.2767,0.2749,0.2752,0.2772,0.2753,0.2775,0.2782,0.2787,0.2818,0.2832,0.2811,0.2911,0.2847,0.2855,0.286,0.2953,0.2974,0.2993,0.2754,0.2754,0.2754,0,0,0.2747,0.2745,0.2772,0.2785,0.2795,0.2784,0.2797,0.2786,0.2792,0.2812,0.2817,0.2856,0.2852,0.2882,0.2896,0.2953,0.2955,0.2943,0.3007,0.3098,0.3118,0.3135,0.3174,0.3194,0.295,0.295,0.295,0,0.273,0.2772,0.2774,0.2807,0.2822,0.2803,0.2833,0.2831,0.2832,0.2858,0.283,0.2893,0.2888,0.298,0.2992,0.2978,0.3013,0.2971,0.3115,0.3132,0.3149,0.3184,0.3205,0.2955,0.2955,0.2954,0.2954,0,0.2776,0.2808,0.2817,0.2862,0.2877,0.289,0.2896,0.2906,0.2904,0.2917,0.2986,0.299,0.3043,0.3041,0.3031,0.3148,0.3129,0.312,0.3097,0.3177,0.3208,0.3228,0.2963,0.2961,0.2959,0.2958,0,0,0.2727,0.2829,0.2833,0.2887,0.2912,0.293,0.2958,0.2994,0.3047,0.3044,0.3131,0.3156,0.3177,0.3195,0.3204,0.3263,0.3391,0.324,0.3243,0.3293,0.3573,0.3469,0.348,0.3424,0.3428,0.3431,0.3545,0,0.2755,0.2844,0.2882,0.2959,0.3005,0.3016,0.3055,0.3093,0.3111,0.318,0.3215,0.3292,0.3235,0.3289,0.3343,0.3388,0.3451,0.3359,0.3473,0.3475,0.3388,0.3503,0.3197,0.3266,0.3564,0.3568,0.357,0,0.2797,0.2856,0.2945,0.305,0.3069,0.3113,0.3192,0.3224,0.3306,0.3334,0.3414,0.3443,0.3546,0.3483,0.3608,0.3558,0.3577,0.3588,0.3593,0.3476,0.341,0.3234,0.3291,0.3603,0.3601,0.3598,0.3596,0,0.2805,0.2903,0.2984,0.3019,0.3118,0.3171,0.3212,0.3285,0.3333,0.3459,0.3518,0.3629,0.37,0.3759,0.3754,0.3717,0.387,0.3827,0.3748,0.3738,0.3487,0.3448,0.3934,0.3934,0.3934,0.3933,0.3933,0,0.2834,0.2907,0.3008,0.3061,0.3152,0.322,0.3313,0.3367,0.3474,0.3546,0.3618,0.3691,0.3777,0.3849,0.3839,0.3851,0.3951,0.3785,0.3783,0.3508,0.3472,0.3763,0.3742,0.3938,0.3937,0.3936,0.3935,0,0.2856,0.292,0.3017,0.3128,0.3169,0.3237,0.3352,0.3395,0.3519,0.3621,0.3677,0.3793,0.3867,0.391,0.4005,0.3951,0.3979,0.3955,0.3596,0.355,0.3761,0.3744,0.3902,0.39,0.3898,0.3896,0.3895,0,0.2895,0.2944,0.3046,0.3063,0.3119,0.322,0.3254,0.3397,0.3429,0.3645,0.3668,0.3825,0.3835,0.3926,0.3871,0.3865,0.395,0.3607,0.3478,0.3787,0.377,0.3755,0.374,0.3177,0.317,0.3164,0.3159,0,0.2906,0.2925,0.2958,0.2995,0.3041,0.3113,0.3185,0.3239,0.3387,0.3511,0.364,0.3707,0.3749,0.3589,0.3579,0.3532,0.3583,0.3488,0.3957,0.3226,0.3111,0.3091,0.3099,0.3107,0.3113,0.3116,0.3119,0.3121,0.2855,0.2846,0.2825,0.2867,0.2915,0.2946,0.2972,0.3042,0.314,0.3209,0.3385,0.3364,0.338,0.3174,0.31,0.3066,0.3281,0.3158,0.3173,0.3195,0.3085,0.2973,0.292,0.2924,0.2927,0.293,0.2933,0,0.2693,0.2676,0.2684,0.2687,0.2682,0.2795,0.2852,0.2828,0.2881,0.2933,0.2976,0.2713,0.2606,0.2662,0.2511,0.2525,0.2474,0.246,0.2362,0.2416,0.2463,0.2312,0.1944,0.1941,0.1938,0.1936,0,0,0.2575,0.2471,0.2476,0.2416,0.2475,0.2462,0.2495,0.2486,0.2493,0.237,0.2324,0.2387,0.2561,0.2193,0.2159,0.2037,0.221,0.1968,0.2759,0.2695,0.2738,0.2864,0.2693,0,0,0,0,0]},{"header":{"parameterUnit":"m.s-1","parameterCategory":2,"la1":30.2991,"la2":30.254,"lo1":-89.0895,"lo2":-89.0444,"dy":0.0017,"dx":0.0017,"nx":28,"ny":28,"refTime":"2025-03-22T09:00:00:Z","depth":"2","parameterNumber":3,"parameterNumberName":"V-component_of_CURRENTS"},"data":[0,0,0,0,0,0,0,0,0,0,0,0,0,0,0,0,0,0,0,0,0,0,0,0,0,0,0,0,0,0,0,0,0,0,0,0,0,0,0,0,0,0,0,0,0,0,0,0,0,0,0,0,0,0,0,0,0,0,-0.0098,-0.0098,0,-0.0127,-0.0127,-0.0127,-0.0152,-0.0152,-0.0152,-0.0153,-0.0221,-0.0223,-0.0225,0,0,0,0,0,0,0,0,0,0,0,0,0,-0.0091,-0.0091,-0.0098,-0.0098,-0.0099,-0.0127,-0.0127,-0.0127,-0.0152,-0.0152,-0.0153,-0.0153,-0.0221,-0.0223,-0.0225,0,0,0,0,0,0,0,0,0,0,0,0,0,-0.0104,-0.0091,-0.0098,-0.0114,-0.0116,-0.0126,-0.0127,-0.0128,-0.0152,-0.0152,-0.0153,-0.0153,-0.022,-0.0223,-0.0225,-0.0233,0,0,-0.0232,-0.0233,0,0,0,0,0,0,0,0,-0.0104,-0.0105,-0.0111,-0.0113,-0.0115,-0.0136,-0.015,-0.0165,-0.0152,-0.0139,-0.0153,-0.0153,-0.0196,-0.02,-0.0205,-0.0236,-0.0239,-0.0233,-0.0234,-0.0235,-0.0236,0,0,0,0,0,0,0,-0.0103,-0.0104,-0.011,-0.0112,-0.0114,-0.0128,-0.0131,-0.0152,-0.0166,-0.014,-0.0142,-0.0144,-0.0197,-0.0203,-0.0207,-0.024,-0.0232,-0.0235,-0.0236,-0.0237,-0.0281,-0.0281,0,0,0,0,0,0,-0.0096,-0.0103,-0.0109,-0.0111,-0.0109,-0.0128,-0.0131,-0.0129,-0.0165,-0.017,-0.0144,-0.0145,-0.0198,-0.0204,-0.0209,-0.0205,-0.0235,-0.0237,-0.0239,-0.0281,-0.0281,-0.0281,0,0,0,0,0,0,-0.0096,-0.0096,-0.0108,-0.0107,-0.011,-0.0128,-0.0126,-0.0129,-0.0136,-0.0167,-0.0174,-0.0146,-0.0199,-0.0206,-0.0222,-0.0208,-0.0238,-0.0241,-0.0282,-0.0281,-0.0281,-0.0206,0,0,0,0,0,0,-0.0095,-0.0096,-0.0093,-0.0107,-0.0109,-0.0107,-0.0126,-0.013,-0.0136,-0.0138,-0.0172,-0.0178,-0.02,-0.0218,-0.0224,-0.0212,-0.0242,-0.0282,-0.0282,-0.0281,-0.0209,-0.0203,-0.0198,0,0,0,0,0,-0.0095,-0.0086,-0.0093,-0.0094,-0.0105,-0.0107,-0.0109,-0.0124,-0.0136,-0.0133,-0.0154,-0.0177,-0.0219,-0.0219,-0.0227,-0.0215,-0.0282,-0.0282,-0.0281,-0.0211,-0.0204,-0.0198,0,0,0,0,0,0,-0.0072,-0.0088,-0.0096,-0.009,-0.0096,-0.0111,-0.0111,-0.0122,-0.0136,-0.0141,-0.0172,-0.018,-0.0191,-0.0215,-0.0215,-0.0228,-0.0256,-0.0256,-0.02,-0.0194,-0.0188,-0.0155,-0.0244,0,0,0,0,0,-0.0068,-0.007,-0.0082,-0.0075,-0.0079,-0.0095,-0.0099,-0.0108,-0.0123,-0.0129,-0.0151,-0.0176,-0.0194,-0.0203,-0.0226,-0.0231,-0.0255,-0.023,-0.0225,-0.022,-0.0198,-0.0216,-0.021,-0.0279,-0.0279,-0.0279,0,0,-0.0057,-0.0065,-0.0066,-0.0071,-0.008,-0.0069,-0.0098,-0.01,-0.0082,-0.0135,-0.0124,-0.0161,-0.0193,-0.0197,-0.0204,-0.0214,-0.0219,-0.0219,-0.0214,-0.0195,-0.0215,-0.0208,-0.0202,-0.0278,-0.0278,-0.0279,0,0,-0.0025,-0.0043,-0.0031,-0.0034,-0.0042,-0.0052,-0.0051,-0.0065,-0.0064,-0.0065,-0.0095,-0.0116,-0.0148,-0.0158,-0.017,-0.015,-0.0193,-0.0169,-0.0108,-0.0125,-0.0119,-0.0114,-0.0156,-0.0155,-0.0161,-0.0161,-0.016,0,-0.0006,0.0009,-0.0025,-0.0009,0.0,-0.004,-0.0011,-0.0017,-0.0031,-0.0021,-0.0053,-0.0085,-0.0123,-0.011,-0.0107,-0.0135,-0.0162,-0.0127,-0.0116,-0.0111,-0.0107,-0.0152,-0.0152,-0.0157,-0.0157,-0.0158,-0.0158,0,0.0039,0.0051,0.0059,0.0066,0.0067,0.0083,0.0071,0.0077,0.006,0.005,0.0051,0.0002,-0.0008,-0.0036,-0.0066,-0.0052,-0.0089,-0.011,-0.0126,-0.0095,-0.0145,-0.0146,-0.0152,-0.0153,-0.0154,-0.0155,0,0,0.0095,0.0094,0.0101,0.0129,0.0112,0.0132,0.0149,0.0168,0.0199,0.016,0.02,0.0146,0.0114,0.0099,0.0055,0.0031,0.0015,-0.0022,-0.0025,-0.0053,-0.0042,-0.0082,-0.0089,-0.0004,-0.0003,-0.0003,-0.0095,0,0.0152,0.0207,0.0186,0.0248,0.0277,0.0252,0.0283,0.0287,0.0272,0.0294,0.0243,0.0252,0.0169,0.0172,0.0133,0.0053,0.0019,0.0041,-0.0076,-0.008,-0.011,-0.0088,-0.0077,-0.0158,-0.0097,-0.0097,-0.0097,0,0.0218,0.0244,0.0315,0.036,0.0373,0.0408,0.0458,0.0473,0.0469,0.0463,0.0443,0.0397,0.0367,0.0292,0.0174,0.0192,0.0088,0.0009,0.0003,-0.0053,-0.0121,-0.0177,-0.0164,-0.01,-0.01,-0.0099,-0.0099,0,0.0296,0.0347,0.0415,0.0428,0.046,0.0509,0.053,0.0533,0.0568,0.0578,0.0595,0.0536,0.0523,0.0399,0.0224,0.0207,0.0079,0.0035,-0.0104,-0.011,-0.0131,-0.0139,-0.0044,-0.0044,-0.0044,-0.0043,-0.0043,0,0.0366,0.0424,0.0471,0.0509,0.0598,0.06,0.0685,0.0692,0.0726,0.0769,0.0695,0.0706,0.055,0.0448,0.0276,0.0084,0.0118,-0.0083,-0.0125,-0.0109,-0.0114,-0.0082,-0.0086,-0.0047,-0.0046,-0.0045,-0.0045,0,0.0414,0.0452,0.0526,0.0596,0.0633,0.069,0.0776,0.0799,0.0854,0.0911,0.0929,0.0852,0.0716,0.0531,0.0326,0.016,-0.0022,-0.0103,-0.0087,-0.0124,-0.0218,-0.0217,-0.0258,-0.026,-0.0262,-0.0263,-0.0265,0,0.0438,0.0483,0.0577,0.0595,0.0628,0.0721,0.0747,0.0843,0.0858,0.0982,0.0975,0.093,0.0852,0.0533,0.0248,-0.0032,-0.0055,-0.0208,-0.0236,-0.0198,-0.0235,-0.0231,-0.0227,-0.0252,-0.0253,-0.0254,-0.0254,0,0.0424,0.0462,0.048,0.0552,0.0603,0.0688,0.0753,0.0834,0.0938,0.1047,0.1119,0.1119,0.0832,0.0545,0.0177,-0.0021,-0.0158,-0.0235,-0.018,-0.0195,-0.0197,-0.0232,-0.0228,-0.0261,-0.0261,-0.026,-0.026,-0.0259,0.0363,0.0361,0.0382,0.0456,0.052,0.0624,0.0745,0.0829,0.0986,0.1201,0.1165,0.1212,0.0902,0.0431,0.0095,-0.0231,-0.0228,-0.0342,-0.0337,-0.0332,-0.0309,-0.0314,-0.0398,-0.0398,-0.0398,-0.0398,-0.0398,0,0.024,0.0241,0.0275,0.0369,0.045,0.0549,0.0705,0.086,0.1089,0.1246,0.1375,0.112,0.0798,0.0474,-0.0029,-0.035,-0.036,-0.0428,-0.0373,-0.0366,-0.0359,-0.0336,-0.0433,-0.0433,-0.0434,-0.0434,0,0,0.0144,0.0116,0.0164,0.0279,0.0394,0.0592,0.0741,0.0994,0.1167,0.1372,0.145,0.1406,0.0955,0.0593,0.0148,-0.0128,-0.0161,-0.018,-0.0126,-0.0002,0.0009,-0.0294,-0.0248,0,0,0,0,0]}],[{"header":{"parameterUnit":"m.s-1","parameterCategory":2,"la1":30.2991,"la2":30.254,"lo1":-89.0895,"lo2":-89.0444,"dy":0.0017,"dx":0.0017,"nx":28,"ny":28,"refTime":"2025-03-22T09:00:00:Z","depth":"4","parameterNumber":2,"parameterNumberName":"U-component_of_CURRENTS"},"data":[0,0,0,0,0,0,0,0,0,0,0,0,0,0,0,0,0,0,0,0,0,0,0,0,0,0,0,0,0,0,0,0,0,0,0,0,0,0,0,0,0,0,0,0,0,0,0,0,0,0,0,0,0,0,0,0,0,0,0.1238,0.124,0,0.1357,0.1358,0.1359,0.1465,0.1467,0.1468,0.147,0.1539,0.1539,0.154,0,0,0,0,0,0,0,0,0,0,0,0,0,0.1049,0.1052,0.1238,0.124,0.1242,0.1357,0.1358,0.136,0.1465,0.1467,0.1469,0.147,0.1539,0.1539,0.154,0,0,0,0,0,0,0,0,0,0,0,0,0,0.1143,0.1053,0.1238,0.131,0.1318,0.1356,0.1358,0.136,0.1465,0.1467,0.1469,0.1471,0.1539,0.1539,0.154,0.15,0,0,0.1542,0.1542,0,0,0,0,0,0,0,0,0.1138,0.115,0.1298,0.1305,0.1314,0.1401,0.1317,0.1405,0.1464,0.1406,0.147,0.1472,0.1488,0.1493,0.1508,0.1503,0.1506,0.1542,0.1543,0.1543,0.1543,0,0,0,0,0,0,0,0.1131,0.1145,0.1283,0.1299,0.1309,0.1318,0.1334,0.1334,0.143,0.1411,0.142,0.1436,0.1492,0.1507,0.151,0.1507,0.1542,0.1543,0.1543,0.1543,0.1646,0.1648,0,0,0,0,0,0,0.1123,0.1139,0.1279,0.1286,0.1232,0.132,0.1338,0.1369,0.1432,0.1445,0.1434,0.1441,0.1504,0.1509,0.1513,0.1602,0.1543,0.1544,0.1544,0.1643,0.1646,0.1649,0,0,0,0,0,0,0.1118,0.1134,0.1274,0.1216,0.1235,0.1322,0.1355,0.137,0.1414,0.145,0.1462,0.1467,0.1506,0.1512,0.1555,0.16,0.1544,0.1545,0.1641,0.1644,0.1647,0.1694,0,0,0,0,0,0,0.1113,0.1132,0.1146,0.1216,0.1239,0.1309,0.1353,0.1371,0.142,0.143,0.148,0.1488,0.1509,0.1554,0.1555,0.16,0.1545,0.1638,0.1642,0.1646,0.169,0.1699,0.1707,0,0,0,0,0,0.1105,0.1105,0.1146,0.1163,0.1257,0.131,0.1321,0.1387,0.1419,0.1435,0.1488,0.1488,0.1584,0.1555,0.1557,0.1603,0.1636,0.1641,0.1646,0.1686,0.1697,0.1707,0,0,0,0,0,0,0.104,0.1118,0.1164,0.1194,0.1258,0.1329,0.1362,0.1391,0.1444,0.1476,0.1498,0.1509,0.156,0.1574,0.1542,0.165,0.1616,0.1622,0.1647,0.1657,0.1665,0.1685,0.1546,0,0,0,0,0,0.103,0.1041,0.1137,0.1157,0.1213,0.129,0.132,0.1371,0.1427,0.1456,0.151,0.1561,0.1576,0.1611,0.1632,0.168,0.1692,0.1719,0.1728,0.1735,0.1755,0.1817,0.1832,0.1666,0.1666,0.1666,0,0,0.0982,0.1051,0.1041,0.1141,0.1218,0.1247,0.1316,0.1387,0.1437,0.145,0.1557,0.1577,0.1589,0.1653,0.1681,0.1679,0.1785,0.1741,0.1747,0.1764,0.1824,0.184,0.1854,0.1669,0.1669,0.1668,0,0,0.0916,0.1005,0.1003,0.1067,0.1189,0.1236,0.1258,0.1378,0.1484,0.1554,0.1585,0.1642,0.169,0.1731,0.1738,0.1802,0.1808,0.1819,0.1899,0.1958,0.1972,0.1985,0.1999,0.2013,0.1847,0.1847,0.1847,0,0.0875,0.0946,0.1005,0.1052,0.1133,0.1225,0.1279,0.1354,0.1471,0.1594,0.1601,0.1718,0.1725,0.1791,0.1828,0.182,0.1847,0.1852,0.1968,0.1981,0.1993,0.2005,0.202,0.185,0.185,0.1849,0.1849,0,0.0816,0.0908,0.0941,0.1028,0.1062,0.1169,0.1277,0.1415,0.154,0.1608,0.177,0.1797,0.1883,0.1885,0.1871,0.1974,0.1959,0.1948,0.1937,0.2012,0.202,0.2034,0.1854,0.1853,0.1852,0.1851,0,0,0.074,0.0882,0.0912,0.0976,0.1129,0.1131,0.1307,0.1497,0.1638,0.1742,0.1906,0.1946,0.1999,0.2014,0.2024,0.2077,0.216,0.2069,0.207,0.2073,0.2279,0.2112,0.211,0.2183,0.2186,0.2189,0.2241,0,0.0767,0.0837,0.0914,0.0976,0.1061,0.1243,0.1379,0.1517,0.1704,0.187,0.1963,0.2047,0.2031,0.2089,0.2141,0.2151,0.2206,0.2146,0.2215,0.2217,0.2051,0.2124,0.22,0.2252,0.2255,0.2257,0.2259,0,0.0746,0.0839,0.0939,0.1087,0.1145,0.1176,0.1481,0.1606,0.1868,0.203,0.2161,0.219,0.2277,0.2241,0.2333,0.2305,0.2315,0.2308,0.231,0.2152,0.2077,0.2169,0.2284,0.2282,0.228,0.2278,0.2277,0,0.0709,0.0843,0.0946,0.0998,0.1167,0.1321,0.143,0.1697,0.1853,0.2125,0.2204,0.2334,0.2375,0.2432,0.2422,0.241,0.2485,0.2462,0.2316,0.2303,0.2415,0.2401,0.254,0.254,0.254,0.254,0.254,0,0.0757,0.0841,0.0944,0.103,0.1154,0.1273,0.1509,0.1695,0.1941,0.2031,0.2243,0.23,0.2431,0.2466,0.2473,0.2424,0.2539,0.2343,0.2319,0.2429,0.2417,0.2422,0.2408,0.2542,0.2541,0.2541,0.2541,0,0.0699,0.0826,0.0908,0.1096,0.1161,0.1219,0.1464,0.1599,0.1887,0.2018,0.2072,0.2278,0.2367,0.2442,0.2523,0.2452,0.2444,0.24,0.2498,0.2477,0.2212,0.22,0.2261,0.2256,0.2252,0.2248,0.2245,0,0.0665,0.073,0.0865,0.0892,0.1007,0.1164,0.1296,0.1574,0.1686,0.1954,0.1937,0.211,0.2225,0.2225,0.2342,0.2382,0.2349,0.2333,0.2291,0.2219,0.2191,0.2185,0.2179,0.2238,0.2237,0.2236,0.2235,0,0.0593,0.0659,0.071,0.0789,0.0877,0.0963,0.1151,0.1219,0.1514,0.1706,0.1806,0.1896,0.1995,0.2113,0.2173,0.2181,0.2343,0.2287,0.2296,0.2257,0.2192,0.2166,0.2166,0.2219,0.2222,0.2223,0.2224,0,0.0486,0.0467,0.0546,0.06,0.0671,0.0742,0.089,0.1034,0.1193,0.1493,0.1503,0.1733,0.1931,0.2005,0.2035,0.2068,0.2047,0.1978,0.2002,0.2021,0.1923,0.1804,0.1707,0,0,0,0,0,0.0339,0.0349,0.0349,0.0424,0.0482,0.0566,0.0751,0.0921,0.1197,0.1197,0.1374,0.1474,0.1617,0.1753,0.1744,0.1911,0.2028,0.1889,0.1952,0.2135,0.2153,0.2063,0,0,0,0,0,0,0.0257,0.0257,0.0291,0.0267,0.0304,0.0391,0.0515,0.0699,0.0781,0.1049,0.1157,0.1346,0.1528,0.1594,0.17,0.1735,0.1736,0.2041,0.2036,0.2125,0.2141,0.2155,0.2069,0,0,0,0,0]},{"header":{"parameterUnit":"m.s-1","parameterCategory":2,"la1":30.2991,"la2":30.254,"lo1":-89.0895,"lo2":-89.0444,"dy":0.0017,"dx":0.0017,"nx":28,"ny":28,"refTime":"2025-03-22T09:00:00:Z","depth":"4","parameterNumber":3,"parameterNumberName":"V-component_of_CURRENTS"},"data":[0,0,0,0,0,0,0,0,0,0,0,0,0,0,0,0,0,0,0,0,0,0,0,0,0,0,0,0,0,0,0,0,0,0,0,0,0,0,0,0,0,0,0,0,0,0,0,0,0,0,0,0,0,0,0,0,0,0,0.0042,0.0042,0,-0.0004,-0.0005,-0.0005,-0.003,-0.003,-0.003,-0.0031,-0.0078,-0.0079,-0.008,0,0,0,0,0,0,0,0,0,0,0,0,0,0.0097,0.0097,0.0042,0.0041,0.0041,-0.0004,-0.0005,-0.0005,-0.003,-0.003,-0.003,-0.0031,-0.0077,-0.0079,-0.008,0,0,0,0,0,0,0,0,0,0,0,0,0,0.0066,0.0096,0.0042,0.0021,0.0019,-0.0004,-0.0005,-0.0005,-0.003,-0.003,-0.003,-0.0031,-0.0077,-0.0078,-0.008,-0.0083,0,0,-0.0085,-0.0085,0,0,0,0,0,0,0,0,0.0068,0.0065,0.0025,0.0023,0.002,-0.0013,-0.0003,-0.0032,-0.003,-0.0009,-0.0031,-0.0031,-0.0057,-0.0061,-0.0066,-0.0085,-0.0087,-0.0085,-0.0086,-0.0087,-0.0087,0,0,0,0,0,0,0,0.007,0.0066,0.0026,0.0024,0.0021,0.001,0.0006,-0.0008,-0.0029,-0.0011,-0.0013,-0.0022,-0.0059,-0.0064,-0.0067,-0.0087,-0.0085,-0.0086,-0.0087,-0.0088,-0.0131,-0.0132,0,0,0,0,0,0,0.0073,0.0068,0.0027,0.0024,0.0041,0.0009,0.0004,-0.0001,-0.0029,-0.0034,-0.0021,-0.0023,-0.0061,-0.0065,-0.0069,-0.0073,-0.0087,-0.0088,-0.0089,-0.0131,-0.0131,-0.0132,0,0,0,0,0,0,0.0074,0.007,0.0029,0.0043,0.0037,0.0008,0.0003,-0.0001,-0.001,-0.0037,-0.0042,-0.0025,-0.0062,-0.0067,-0.0079,-0.0076,-0.0089,-0.009,-0.0131,-0.0131,-0.0132,-0.0083,0,0,0,0,0,0,0.0076,0.0071,0.0081,0.0044,0.0036,0.0021,0.0003,-0.0002,-0.0015,-0.0017,-0.0042,-0.0047,-0.0062,-0.0077,-0.0081,-0.0078,-0.0091,-0.0131,-0.0131,-0.0131,-0.0084,-0.0082,-0.0079,0,0,0,0,0,0.0078,0.0094,0.0081,0.0077,0.0047,0.0021,0.0017,-0.0004,-0.0015,-0.0013,-0.0032,-0.0046,-0.0083,-0.0078,-0.0082,-0.008,-0.013,-0.0131,-0.0131,-0.0085,-0.0082,-0.0079,0,0,0,0,0,0,0.0118,0.0092,0.0077,0.0083,0.0054,0.0016,0.0018,-0.0002,-0.0016,-0.0018,-0.0044,-0.0049,-0.006,-0.0079,-0.0073,-0.0096,-0.0111,-0.0113,-0.0075,-0.0072,-0.0069,-0.0064,-0.0093,0,0,0,0,0,0.0132,0.0152,0.0099,0.0114,0.0089,0.0052,0.0042,0.0023,-0.0001,-0.0007,-0.003,-0.0052,-0.0066,-0.0075,-0.0092,-0.0101,-0.0137,-0.0106,-0.0104,-0.0101,-0.0101,-0.0152,-0.0154,-0.0133,-0.0133,-0.0133,0,0,0.016,0.0145,0.016,0.0126,0.0099,0.008,0.0046,0.0029,0.0025,-0.001,-0.0018,-0.0042,-0.0066,-0.0076,-0.0083,-0.0091,-0.0127,-0.0102,-0.0099,-0.0101,-0.0153,-0.0155,-0.0157,-0.0134,-0.0134,-0.0134,0,0,0.0213,0.0195,0.0215,0.019,0.0148,0.0114,0.0107,0.0056,0.0043,0.0027,0.0003,-0.0021,-0.0045,-0.0063,-0.0073,-0.007,-0.0111,-0.0077,-0.0059,-0.0108,-0.011,-0.0113,-0.0163,-0.017,-0.0077,-0.0077,-0.0077,0,0.0233,0.0247,0.0217,0.0211,0.0186,0.0128,0.0112,0.0099,0.0059,0.004,0.003,-0.0021,-0.0039,-0.0053,-0.005,-0.0063,-0.01,-0.0064,-0.0104,-0.0107,-0.0111,-0.0162,-0.017,-0.0075,-0.0075,-0.0075,-0.0076,0,0.0289,0.0289,0.0291,0.0265,0.0239,0.0218,0.0166,0.0146,0.011,0.0083,0.0051,0.0022,-0.0012,-0.0021,-0.003,-0.0059,-0.0081,-0.0093,-0.0108,-0.0109,-0.0164,-0.0173,-0.0072,-0.0072,-0.0073,-0.0074,0,0,0.0316,0.0327,0.0321,0.0301,0.0253,0.022,0.0214,0.0161,0.0145,0.0111,0.0082,0.006,0.0029,0.0014,-0.0008,-0.0047,-0.0096,-0.0074,-0.0078,-0.0117,-0.0211,-0.0183,-0.0192,-0.0116,-0.0117,-0.0118,-0.024,0,0.0341,0.0353,0.0349,0.0329,0.0296,0.0248,0.024,0.0198,0.0163,0.013,0.0088,0.0063,0.005,0.0032,-0.0006,-0.0072,-0.012,-0.0063,-0.021,-0.0215,-0.0184,-0.0201,-0.0123,-0.0248,-0.025,-0.0252,-0.0253,0,0.0353,0.0357,0.0357,0.0317,0.0295,0.029,0.0222,0.0208,0.0167,0.0149,0.0119,0.0086,0.0041,0.0024,-0.0089,-0.0053,-0.0128,-0.0184,-0.0191,-0.0188,-0.0204,-0.0248,-0.0271,-0.027,-0.0268,-0.0267,-0.0266,0,0.0338,0.0331,0.033,0.0321,0.0291,0.0277,0.0246,0.0207,0.0198,0.0159,0.0152,0.0091,0.006,-0.0033,-0.0123,-0.0119,-0.026,-0.0273,-0.0325,-0.0324,-0.0334,-0.033,-0.0372,-0.0372,-0.0371,-0.0371,-0.0371,0,0.0326,0.0314,0.0327,0.0328,0.0316,0.0266,0.0258,0.0236,0.0209,0.0219,0.0161,0.0163,0.0042,-0.0038,-0.0132,-0.0246,-0.027,-0.0327,-0.0353,-0.0311,-0.0304,-0.0341,-0.0336,-0.0375,-0.0374,-0.0374,-0.0373,0,0.0311,0.0321,0.0327,0.0323,0.0321,0.0305,0.0298,0.0316,0.0259,0.0273,0.0266,0.0195,0.0099,-0.0023,-0.0182,-0.0251,-0.0369,-0.0409,-0.0354,-0.0375,-0.0406,-0.0397,-0.0492,-0.0492,-0.0492,-0.0492,-0.0492,0,0.0318,0.0325,0.0357,0.0396,0.0408,0.0393,0.0427,0.0369,0.0398,0.0315,0.0345,0.0229,0.0184,-0.0018,-0.0162,-0.0357,-0.0378,-0.0455,-0.0431,-0.0402,-0.0418,-0.0409,-0.0401,-0.0492,-0.0492,-0.0492,-0.0492,0,0.0345,0.0369,0.0397,0.0483,0.053,0.0563,0.0584,0.0584,0.0528,0.0486,0.043,0.0301,0.0182,0.0017,-0.014,-0.0276,-0.041,-0.0456,-0.0457,-0.0435,-0.0403,-0.0417,-0.0409,-0.0492,-0.0492,-0.0492,-0.0492,0,0.0399,0.0435,0.0504,0.0559,0.0639,0.0697,0.0687,0.0699,0.067,0.0562,0.0551,0.0381,0.0274,0.0058,-0.0078,-0.0215,-0.0256,-0.0301,-0.0311,-0.0313,-0.0216,-0.0147,-0.0184,0,0,0,0,0,0.0445,0.0494,0.0581,0.0646,0.0735,0.0763,0.0796,0.0777,0.0701,0.0697,0.0607,0.0503,0.0259,0.0143,0.0014,-0.0085,-0.0283,-0.0243,-0.0339,-0.0492,-0.0492,-0.0405,0,0,0,0,0,0,0.0489,0.0567,0.0588,0.0702,0.0764,0.0851,0.0866,0.083,0.08,0.0709,0.0596,0.0482,0.0263,0.0351,0.002,-0.0031,-0.0109,-0.037,-0.0373,-0.0492,-0.0492,-0.0492,-0.0403,0,0,0,0,0]}]]